Terminal Aerodrome Forecast
Issued by NWS Bismarck, ND

Home | Current Version | Previous Version | Graphics & Text | Print | Product List | Glossary Off
Versions: 1 2 3 4 5 6 7 8 9 10 11 12 13 14 15

643
FTUS43 KBIS 280904 AAA
TAFISN
TAF AMD
KISN 280904Z 2809/2906 33012KT P6SM SCT250
     FM281800 30007KT P6SM FEW080 FEW200
     FM282100 27007KT P6SM FEW080 FEW200
     FM290000 24008KT P6SM FEW070 SCT200
     FM290300 17005KT P6SM FEW060 SCT200=

USA.gov is the U.S. government's official web portal to all federal, state and local government web resources and services.